Weather History for Tillamook, OR

Change the Weather History Date:

Tuesday, April 23, 2013

  Actual Average (KMMV) Record (KMMV)
Temperature  
Mean Temperature 50 °F 51 °F  
Max Temperature 64 °F 62 °F 85 °F (1910)
Min Temperature 35 °F 40 °F 29 °F (1954)
Degree Days  
Heating Degree Days 16 14  
Month to date heating degree days 355  
Since 1 July heating degree days 4306  
Cooling Degree Days 0 0  
Month to date cooling degree days 0  
Year to date cooling degree days 0  
Moisture  
Dew Point 40 °F    
Average Humidity 75    
Maximum Humidity 100    
Minimum Humidity 37    
Precipitation  
Precipitation 0.00 in 0.08 in 1.50 in (1996)
Month to date precipitation 2.38  
Year to date precipitation 16.95  
Sea Level Pressure  
Sea Level Pressure 30.29 in    
Wind  
Wind Speed 4 mph (WNW)    
Max Wind Speed 24 mph    
Max Gust Speed 32 mph    
Visibility 10 miles    
Events      
T = Trace of Precipitation, MM = Missing Value Source: NWS Daily Summary

Daily Weather History Graph

Daily Weather History Graph

Search for Another Location

Airport:

Trip Planner

Search our weather history database for the weather conditions in past years. The results will help you decide how hot, cold, wet, or windy it might be!

Date:

Astronomy

Apr. 23, 2013 Rise Set
Actual Time 7:15 AM MDT 9:12 PM MDT
Civil Twilight 6:43 AM MDT 9:44 PM MDT
Nautical Twilight 6:04 AM MDT 10:23 PM MDT
Astronomical Twilight 5:22 AM MDT 11:06 PM MDT
Moon 7:08 PM MDT (4/23) 5:53 AM MDT (4/23)
Length of Visible Light 15h 00m
Length of Day
13h 56m
Waxing Gibbous, 94% of the Moon is Illuminated
Apr 23
Waxing Gibbous
Apr 25
Full
May 2
Last Quarter
May 9
New
May 17
First Quarter

Hourly Weather History & Observations

Time (MDT) Temp. Windchill Dew Point Humidity Pressure Visibility Wind Dir Wind Speed Gust Speed Precip Events Conditions
12:15 AM 44.6 °F - 41.0 °F 87% 30.39 in 10.0 mi Calm Calm - N/A   Clear
12:35 AM 44.6 °F - 41.0 °F 87% 30.39 in 10.0 mi Calm Calm - N/A   Clear
12:55 AM 44.6 °F 43.1 °F 41.0 °F 87% 30.39 in 10.0 mi East 3.5 mph - N/A   Clear
1:15 AM 42.8 °F - 41.0 °F 93% 30.39 in 10.0 mi Calm Calm - N/A   Clear
1:35 AM 41.0 °F - 39.2 °F 93% 30.39 in 10.0 mi Calm Calm - N/A   Clear
1:55 AM 41.0 °F - 39.2 °F 93% 30.39 in 10.0 mi Calm Calm - N/A   Clear
2:15 AM 41.0 °F - 39.2 °F 93% 30.39 in 10.0 mi Calm Calm - N/A   Clear
2:35 AM 39.2 °F 37.0 °F 39.2 °F 100% 30.38 in 10.0 mi SSE 3.5 mph - N/A   Clear
2:55 AM 39.2 °F - 39.2 °F 100% 30.38 in 7.0 mi Calm Calm - N/A   Clear
3:15 AM 39.2 °F - 39.2 °F 100% 30.37 in 10.0 mi Calm Calm - N/A   Clear
3:35 AM 39.2 °F - 37.4 °F 93% 30.37 in 10.0 mi Calm Calm - N/A   Clear
4:15 AM 39.2 °F - 37.4 °F 93% 30.35 in 10.0 mi Calm Calm - N/A   Clear
4:35 AM 39.2 °F - 39.2 °F 100% 30.35 in 10.0 mi Calm Calm - N/A   Clear
4:55 AM 37.4 °F - 35.6 °F 93% 30.35 in 10.0 mi Calm Calm - N/A   Clear
5:15 AM 37.4 °F - 37.4 °F 100% 30.35 in 10.0 mi Calm Calm - N/A   Clear
5:35 AM 37.4 °F - 37.4 °F 100% 30.35 in 10.0 mi Calm Calm - N/A   Clear
5:55 AM 35.6 °F 32.8 °F 35.6 °F 100% 30.35 in 7.0 mi SSE 3.5 mph - N/A   Clear
6:15 AM 35.6 °F 32.8 °F 33.8 °F 93% 30.34 in 10.0 mi SSE 3.5 mph - N/A   Clear
6:35 AM 35.6 °F 32.8 °F 35.6 °F 100% 30.34 in 10.0 mi SE 3.5 mph - N/A   Clear
6:55 AM 35.6 °F - 35.6 °F 100% 30.34 in 10.0 mi Calm Calm - N/A   Clear
7:15 AM 35.6 °F - 35.6 °F 100% 30.33 in 10.0 mi Calm Calm - N/A   Clear
7:35 AM 35.6 °F 32.8 °F 35.6 °F 100% 30.33 in 10.0 mi SE 3.5 mph - N/A   Clear
7:55 AM 35.6 °F - 35.6 °F 100% 30.33 in 10.0 mi Calm Calm - N/A   Clear
8:15 AM 35.6 °F 31.7 °F 35.6 °F 100% 30.32 in 10.0 mi SE 4.6 mph - N/A   Clear
8:35 AM 39.2 °F - 37.4 °F 93% 30.33 in 7.0 mi Calm Calm - N/A   Clear
8:55 AM 39.2 °F - 39.2 °F 100% 30.32 in 10.0 mi Calm Calm - N/A   Clear
9:15 AM 41.0 °F - 39.2 °F 93% 30.32 in 10.0 mi Calm Calm - N/A   Clear
9:35 AM 42.8 °F - 41.0 °F 93% 30.32 in 10.0 mi Calm Calm - N/A   Clear
9:55 AM 46.4 °F - 41.0 °F 81% 30.32 in 10.0 mi Calm Calm - N/A   Clear
10:15 AM 48.2 °F - 41.0 °F 76% 30.31 in 10.0 mi Calm Calm - N/A   Clear
10:35 AM 51.8 °F - 39.2 °F 62% 30.30 in 10.0 mi Calm Calm - N/A   Clear
10:55 AM 53.6 °F - 39.2 °F 58% 30.30 in 10.0 mi North 3.5 mph - N/A   Clear
11:15 AM 55.4 °F - 42.8 °F 63% 30.30 in 10.0 mi Calm Calm - N/A   Clear
11:35 AM 57.2 °F - 42.8 °F 59% 30.29 in 10.0 mi Calm Calm - N/A   Clear
11:55 AM 59.0 °F - 41.0 °F 51% 30.29 in 10.0 mi NW 3.5 mph - N/A   Clear
12:15 PM 60.8 °F - 39.2 °F 45% 30.29 in 10.0 mi NW 4.6 mph - N/A   Clear
12:35 PM 60.8 °F - 41.0 °F 48% 30.29 in 10.0 mi NNW 8.1 mph - N/A   Clear
12:55 PM 62.6 °F - 41.0 °F 45% 30.28 in 10.0 mi NW 6.9 mph - N/A   Clear
1:15 PM 64.4 °F - 39.2 °F 40% 30.27 in 10.0 mi NW 9.2 mph - N/A   Clear
1:35 PM 64.4 °F - 39.2 °F 40% 30.26 in 10.0 mi NW 13.8 mph 20.7 mph N/A   Clear
1:55 PM 62.6 °F - 37.4 °F 39% 30.27 in 10.0 mi WNW 17.3 mph 21.9 mph N/A   Clear
2:15 PM 62.6 °F - 35.6 °F 37% 30.26 in 10.0 mi WNW 17.3 mph 21.9 mph N/A   Clear
2:35 PM 62.6 °F - 35.6 °F 37% 30.25 in 10.0 mi WNW 18.4 mph 24.2 mph N/A   Clear
2:55 PM 60.8 °F - 35.6 °F 39% 30.25 in 10.0 mi NW 18.4 mph 24.2 mph N/A   Clear
3:15 PM 60.8 °F - 39.2 °F 45% 30.25 in 10.0 mi WNW 24.2 mph 31.1 mph N/A   Clear
3:35 PM 59.0 °F - 41.0 °F 51% 30.25 in 10.0 mi WNW 23.0 mph 32.2 mph N/A   Clear
3:55 PM 59.0 °F - 41.0 °F 51% 30.25 in 10.0 mi WNW 20.7 mph 31.1 mph N/A   Clear
4:15 PM 59.0 °F - 41.0 °F 51% 30.24 in 10.0 mi WNW 21.9 mph 31.1 mph N/A   Clear
4:35 PM 60.8 °F - 35.6 °F 39% 30.23 in 10.0 mi WNW 20.7 mph 29.9 mph N/A   Clear
4:55 PM 60.8 °F - 35.6 °F 39% 30.23 in 10.0 mi WNW 21.9 mph 28.8 mph N/A   Clear
5:15 PM 59.0 °F - 39.2 °F 48% 30.22 in 10.0 mi WNW 19.6 mph 27.6 mph N/A   Clear
5:35 PM 59.0 °F - 42.8 °F 55% 30.22 in 10.0 mi WNW 20.7 mph 29.9 mph N/A   Clear
5:55 PM 57.2 °F - 44.6 °F 63% 30.22 in 10.0 mi WNW 20.7 mph 27.6 mph N/A   Clear
6:15 PM 57.2 °F - 48.2 °F 72% 30.22 in 10.0 mi WNW 20.7 mph 26.5 mph N/A   Clear
6:35 PM 55.4 °F - 48.2 °F 77% 30.21 in 10.0 mi WNW 20.7 mph 26.5 mph N/A   Clear
6:55 PM 55.4 °F - 46.4 °F 72% 30.21 in 10.0 mi West 18.4 mph 24.2 mph N/A   Clear
7:15 PM 55.4 °F - 46.4 °F 72% 30.21 in 10.0 mi West 6.9 mph 17.3 mph N/A   Clear
7:35 PM 55.4 °F - 46.4 °F 72% 30.22 in 10.0 mi WNW 9.2 mph - N/A   Clear
7:55 PM 53.6 °F - 44.6 °F 72% 30.21 in 10.0 mi NW 11.5 mph 17.3 mph N/A   Clear
8:15 PM 53.6 °F - 44.6 °F 72% 30.21 in 10.0 mi NW 11.5 mph 16.1 mph N/A   Clear
8:35 PM 53.6 °F - 44.6 °F 72% 30.21 in 10.0 mi NW 9.2 mph - N/A   Clear
8:55 PM 51.8 °F - 42.8 °F 71% 30.21 in 10.0 mi Calm Calm - N/A   Clear
9:15 PM 51.8 °F - 42.8 °F 71% 30.21 in 10.0 mi West 6.9 mph 17.3 mph N/A   Clear
9:35 PM 51.8 °F - 42.8 °F 71% 30.22 in 10.0 mi West 3.5 mph - N/A   Clear
9:55 PM 50.0 °F - 42.8 °F 76% 30.22 in 10.0 mi Calm Calm - N/A   Clear
10:15 PM 50.0 °F - 42.8 °F 76% 30.23 in 10.0 mi Calm Calm - N/A   Clear
10:35 PM 46.4 °F 45.2 °F 42.8 °F 87% 30.23 in 10.0 mi South 3.5 mph - N/A   Clear
10:55 PM 46.4 °F - 42.8 °F 87% 30.23 in 10.0 mi Calm Calm - N/A   Clear
11:15 PM 46.4 °F - 42.8 °F 87% 30.23 in 10.0 mi Calm Calm - N/A   Clear
11:35 PM 44.6 °F - 41.0 °F 87% 30.23 in 10.0 mi Calm Calm - N/A   Clear
11:55 PM 44.6 °F - 41.0 °F 87% 30.23 in 10.0 mi Calm Calm - N/A   Clear